QPF
0.03 0.02 0.02 0.01 0.01 0.01 0.01 0.01 0.01 0.02 0.02 0.02 0.03 0.03 0.03 0.04 0.05 0.08 0.09 0.07 0.06 0.06 0.05 0.05 0.04 0.03 0.03 0.02 0.01 0.02 0.02 0.03 0.03 0.02 0.01 0.01 0.01 0.01 0.00 0.00 0.00 0.00 0.00
0.02 0.02 0.02 0.01 0.01 0.01 0.01 0.01 0.01 0.02 0.02 0.02 0.02 0.02 0.02 0.02 0.04 0.05 0.07 0.07 0.06 0.06 0.05 0.04 0.03 0.02 0.03 0.02 0.02 0.02 0.02 0.02 0.02 0.02 0.01 0.01 0.01 0.01 0.01 0.00 0.00 0.00 0.01
0.02 0.02 0.02 0.01 0.01 0.01 0.01 0.01 0.01 0.02 0.02 0.01 0.01 0.02 0.02 0.02 0.04 0.04 0.05 0.05 0.05 0.04 0.04 0.03 0.02 0.02 0.02 0.02 0.02 0.02 0.01 0.01 0.02 0.03 0.02 0.02 0.01 0.01 0.01 0.01 0.01 0.01 0.01
0.03 0.03 0.03 0.02 0.02 0.01 0.01 0.01 0.01 0.02 0.02 0.02 0.02 0.02 0.02 0.02 0.03 0.03 0.04 0.04 0.04 0.03 0.03 0.02 0.01 0.01 0.02 0.03 0.02 0.03 0.03 0.02 0.03 0.02 0.02 0.01 0.01 0.01 0.02 0.02 0.03 0.02 0.01
0.03 0.04 0.03 0.02 0.02 0.01 0.01 0.01 0.01 0.01 0.01 0.01 0.02 0.02 0.02 0.02 0.02 0.02 0.02 0.03 0.04 0.04 0.03 0.02 0.02 0.01 0.02 0.03 0.02 0.03 0.04 0.04 0.03 0.03 0.02 0.02 0.02 0.02 0.02 0.02 0.03 0.02 0.01
0.03 0.02 0.02 0.02 0.02 0.01 0.01 0.00 0.01 0.01 0.01 0.01 0.02 0.02 0.02 0.01 0.02 0.03 0.02 0.02 0.02 0.02 0.02 0.03 0.04 0.03 0.02 0.02 0.02 0.02 0.03 0.03 0.04 0.04 0.03 0.02 0.03 0.02 0.03 0.02 0.02 0.02 0.01
0.02 0.01 0.01 0.01 0.02 0.02 0.01 0.01 0.01 0.01 0.01 0.01 0.01 0.02 0.02 0.02 0.03 0.04 0.03 0.02 0.03 0.02 0.03 0.04 0.03 0.02 0.02 0.01 0.02 0.02 0.02 0.02 0.02 0.03 0.03 0.02 0.03 0.03 0.02 0.02 0.01 0.01 0.01
0.02 0.02 0.01 0.01 0.01 0.01 0.01 0.01 0.01 0.01 0.01 0.01 0.01 0.02 0.02 0.03 0.04 0.03 0.04 0.03 0.04 0.04 0.03 0.04 0.04 0.02 0.01 0.01 0.02 0.02 0.01 0.01 0.01 0.01 0.01 0.02 0.03 0.04 0.03 0.02 0.02 0.02 0.01
0.03 0.03 0.02 0.01 0.01 0.01 0.01 0.01 0.01 0.01 0.01 0.01 0.01 0.01 0.02 0.03 0.06 0.07 0.06 0.05 0.04 0.04 0.04 0.04 0.04 0.03 0.02 0.02 0.03 0.03 0.03 0.02 0.01 0.01 0.01 0.01 0.02 0.02 0.02 0.03 0.03 0.02 0.01
0.04 0.04 0.04 0.03 0.03 0.02 0.02 0.01 0.01 0.01 0.01 0.01 0.02 0.02 0.02 0.03 0.05 0.07 0.08 0.06 0.05 0.05 0.06 0.05 0.03 0.02 0.03 0.03 0.03 0.03 0.03 0.03 0.02 0.02 0.01 0.01 0.01 0.01 0.01 0.02 0.03 0.03 0.02
0.06 0.05 0.06 0.06 0.05 0.04 0.03 0.03 0.04 0.03 0.02 0.02 0.03 0.03 0.02 0.02 0.03 0.03 0.05 0.04 0.04 0.04 0.05 0.05 0.04 0.03 0.02 0.03 0.02 0.02 0.03 0.03 0.03 0.03 0.03 0.03 0.02 0.01 0.01 0.01 0.02 0.03 0.03
0.05 0.04 0.04 0.05 0.05 0.05 0.05 0.05 0.05 0.05 0.04 0.05 0.06 0.04 0.02 0.02 0.02 0.02 0.03 0.03 0.04 0.03 0.04 0.05 0.05 0.04 0.03 0.03 0.01 0.01 0.02 0.03 0.04 0.03 0.03 0.02 0.02 0.01 0.01 0.02 0.03 0.04 0.03
0.03 0.03 0.03 0.03 0.03 0.03 0.03 0.03 0.03 0.04 0.04 0.04 0.04 0.02 0.02 0.03 0.03 0.03 0.02 0.02 0.02 0.03 0.03 0.04 0.06 0.05 0.04 0.02 0.01 0.02 0.02 0.02 0.02 0.03 0.04 0.04 0.03 0.02 0.03 0.03 0.03 0.04 0.04
0.01 0.01 0.01 0.01 0.02 0.02 0.01 0.02 0.02 0.03 0.03 0.03 0.03 0.02 0.03 0.02 0.02 0.02 0.02 0.02 0.02 0.02 0.02 0.03 0.04 0.04 0.04 0.03 0.02 0.02 0.02 0.02 0.01 0.01 0.02 0.03 0.03 0.04 0.04 0.03 0.04 0.03 0.04
0.01 0.01 0.01 0.01 0.01 0.01 0.01 0.02 0.02 0.02 0.03 0.03 0.03 0.03 0.03 0.03 0.03 0.03 0.03 0.02 0.02 0.02 0.03 0.02 0.02 0.02 0.02 0.02 0.02 0.02 0.02 0.02 0.02 0.02 0.02 0.03 0.04 0.04 0.05 0.06 0.07 0.06 0.05
0.02 0.01 0.01 0.01 0.01 0.01 0.02 0.02 0.03 0.03 0.03 0.04 0.05 0.06 0.06 0.04 0.04 0.04 0.04 0.04 0.03 0.03 0.02 0.02 0.02 0.02 0.02 0.02 0.01 0.02 0.02 0.01 0.02 0.02 0.02 0.02 0.03 0.04 0.04 0.05 0.07 0.08 0.08
0.02 0.02 0.02 0.01 0.01 0.01 0.02 0.03 0.04 0.03 0.03 0.04 0.05 0.07 0.08 0.07 0.06 0.05 0.04 0.03 0.04 0.04 0.03 0.02 0.01 0.01 0.02 0.01 0.01 0.01 0.01 0.01 0.02 0.02 0.02 0.02 0.02 0.03 0.04 0.04 0.04 0.05 0.06
0.02 0.02 0.02 0.01 0.01 0.01 0.01 0.02 0.03 0.03 0.03 0.04 0.04 0.05 0.06 0.06 0.05 0.05 0.04 0.04 0.03 0.03 0.02 0.03 0.02 0.02 0.02 0.02 0.02 0.02 0.01 0.02 0.01 0.02 0.02 0.03 0.03 0.03 0.04 0.05 0.04 0.04 0.04
0.02 0.02 0.02 0.01 0.01 0.01 0.01 0.02 0.03 0.05 0.06 0.06 0.05 0.05 0.05 0.05 0.05 0.06 0.05 0.03 0.02 0.02 0.02 0.02 0.02 0.02 0.02 0.03 0.03 0.02 0.01 0.01 0.01 0.01 0.02 0.03 0.03 0.03 0.04 0.05 0.05 0.05 0.04
0.01 0.02 0.01 0.01 0.02 0.02 0.02 0.02 0.03 0.05 0.07 0.08 0.08 0.08 0.08 0.07 0.05 0.06 0.06 0.05 0.04 0.04 0.03 0.02 0.02 0.02 0.02 0.02 0.02 0.01 0.02 0.01 0.01 0.01 0.01 0.02 0.03 0.03 0.04 0.05 0.05 0.05 0.04
0.01 0.01 0.02 0.02 0.02 0.03 0.03 0.03 0.04 0.05 0.05 0.06 0.07 0.08 0.08 0.08 0.08 0.07 0.05 0.05 0.04 0.04 0.04 0.03 0.03 0.02 0.02 0.02 0.01 0.01 0.02 0.02 0.02 0.02 0.02 0.02 0.04 0.04 0.04 0.04 0.05 0.06 0.05
0.01 0.02 0.02 0.02 0.02 0.03 0.03 0.03 0.03 0.03 0.04 0.04 0.05 0.06 0.07 0.07 0.07 0.07 0.06 0.05 0.04 0.04 0.04 0.03 0.03 0.03 0.03 0.02 0.02 0.02 0.02 0.02 0.02 0.02 0.02 0.02 0.02 0.02 0.03 0.04 0.04 0.05 0.04
0.01 0.01 0.02 0.02 0.02 0.02 0.02 0.02 0.03 0.03 0.03 0.03 0.04 0.05 0.06 0.07 0.07 0.07 0.07 0.06 0.04 0.04 0.04 0.04 0.03 0.03 0.03 0.02 0.01 0.02 0.02 0.02 0.02 0.02 0.02 0.02 0.02 0.02 0.02 0.03 0.04 0.04 0.04
0.02 0.02 0.02 0.02 0.02 0.02 0.02 0.02 0.02 0.02 0.02 0.02 0.02 0.03 0.03 0.04 0.06 0.06 0.05 0.04 0.05 0.05 0.04 0.03 0.03 0.03 0.02 0.02 0.01 0.01 0.01 0.02 0.02 0.02 0.02 0.02 0.02 0.03 0.03 0.04 0.05 0.05 0.05
0.01 0.01 0.02 0.02 0.02 0.01 0.01 0.01 0.01 0.01 0.01 0.01 0.01 0.01 0.01 0.02 0.02 0.03 0.04 0.04 0.04 0.04 0.04 0.04 0.03 0.03 0.02 0.02 0.01 0.01 0.02 0.02 0.02 0.02 0.02 0.02 0.02 0.02 0.02 0.03 0.03 0.04 0.05
0.01 0.01 0.01 0.01 0.01 0.01 0.01 0.01 0.01 0.01 0.01 0.01 0.01 0.01 0.01 0.01 0.01 0.01 0.02 0.03 0.03 0.03 0.04 0.04 0.03 0.03 0.02 0.02 0.02 0.02 0.02 0.02 0.02 0.02 0.02 0.02 0.02 0.03 0.03 0.03 0.03 0.03 0.03
MSLP
1009.46 1009.47 1009.51 1009.58 1009.66 1009.76 1009.87 1010.00 1010.13 1010.26 1010.41 1010.57 1010.75 1010.97 1011.24 1011.56 1011.94 1012.39 1012.88 1013.41 1013.95 1014.46 1014.93 1015.33 1015.67 1015.95 1016.19 1016.42 1016.66 1016.95 1017.30 1017.73 1018.22 1018.77 1019.35 1019.92 1020.46 1020.95 1021.38 1021.74 1022.04 1022.28 1022.48
1009.64 1009.64 1009.69 1009.79 1009.92 1010.08 1010.26 1010.46 1010.65 1010.86 1011.06 1011.26 1011.48 1011.73 1012.02 1012.35 1012.74 1013.18 1013.65 1014.14 1014.61 1015.05 1015.43 1015.74 1015.97 1016.15 1016.30 1016.43 1016.60 1016.83 1017.13 1017.52 1017.99 1018.52 1019.08 1019.63 1020.15 1020.62 1021.01 1021.34 1021.59 1021.79 1021.95
1009.89 1009.87 1009.92 1010.04 1010.20 1010.40 1010.64 1010.89 1011.14 1011.39 1011.63 1011.87 1012.11 1012.38 1012.67 1013.01 1013.39 1013.81 1014.25 1014.71 1015.14 1015.52 1015.84 1016.08 1016.26 1016.37 1016.44 1016.52 1016.63 1016.80 1017.06 1017.41 1017.83 1018.32 1018.84 1019.37 1019.86 1020.29 1020.65 1020.94 1021.16 1021.32 1021.44
1010.20 1010.16 1010.20 1010.31 1010.48 1010.71 1010.97 1011.26 1011.54 1011.82 1012.09 1012.34 1012.60 1012.86 1013.15 1013.47 1013.83 1014.23 1014.65 1015.07 1015.46 1015.81 1016.10 1016.31 1016.44 1016.52 1016.56 1016.60 1016.68 1016.81 1017.03 1017.33 1017.72 1018.16 1018.64 1019.12 1019.58 1019.98 1020.31 1020.57 1020.75 1020.88 1020.96
1010.54 1010.47 1010.48 1010.57 1010.73 1010.96 1011.23 1011.53 1011.83 1012.12 1012.40 1012.66 1012.91 1013.16 1013.44 1013.74 1014.07 1014.44 1014.82 1015.21 1015.58 1015.90 1016.17 1016.36 1016.49 1016.56 1016.59 1016.63 1016.68 1016.80 1016.99 1017.25 1017.60 1018.00 1018.44 1018.88 1019.30 1019.67 1019.98 1020.21 1020.37 1020.47 1020.51
1010.84 1010.74 1010.71 1010.77 1010.92 1011.13 1011.39 1011.68 1011.98 1012.28 1012.55 1012.81 1013.06 1013.31 1013.57 1013.84 1014.15 1014.48 1014.83 1015.19 1015.52 1015.82 1016.07 1016.26 1016.39 1016.47 1016.52 1016.56 1016.62 1016.73 1016.90 1017.14 1017.45 1017.82 1018.21 1018.62 1019.01 1019.35 1019.64 1019.86 1020.00 1020.08 1020.10
1011.05 1010.92 1010.86 1010.89 1011.00 1011.18 1011.42 1011.70 1011.99 1012.28 1012.57 1012.84 1013.09 1013.33 1013.59 1013.85 1014.13 1014.43 1014.75 1015.07 1015.37 1015.64 1015.88 1016.06 1016.19 1016.28 1016.35 1016.40 1016.48 1016.59 1016.76 1016.98 1017.27 1017.60 1017.96 1018.34 1018.69 1019.02 1019.29 1019.49 1019.62 1019.69 1019.69
1011.12 1010.96 1010.88 1010.87 1010.95 1011.10 1011.32 1011.58 1011.86 1012.16 1012.45 1012.74 1013.01 1013.27 1013.53 1013.80 1014.07 1014.36 1014.64 1014.93 1015.20 1015.44 1015.64 1015.81 1015.94 1016.04 1016.12 1016.20 1016.29 1016.41 1016.58 1016.79 1017.06 1017.36 1017.69 1018.03 1018.36 1018.66 1018.91 1019.10 1019.23 1019.29 1019.28
1011.03 1010.86 1010.75 1010.72 1010.77 1010.89 1011.08 1011.33 1011.61 1011.91 1012.22 1012.53 1012.84 1013.14 1013.43 1013.72 1014.00 1014.28 1014.56 1014.81 1015.05 1015.26 1015.44 1015.59 1015.71 1015.80 1015.89 1015.98 1016.08 1016.21 1016.38 1016.59 1016.84 1017.12 1017.42 1017.72 1018.02 1018.29 1018.52 1018.69 1018.81 1018.87 1018.86
1010.79 1010.62 1010.51 1010.46 1010.48 1010.57 1010.73 1010.95 1011.22 1011.53 1011.86 1012.20 1012.56 1012.91 1013.25 1013.58 1013.90 1014.20 1014.47 1014.72 1014.93 1015.12 1015.27 1015.39 1015.49 1015.58 1015.67 1015.76 1015.88 1016.02 1016.19 1016.39 1016.63 1016.88 1017.15 1017.42 1017.68 1017.92 1018.12 1018.28 1018.38 1018.44 1018.44
1010.45 1010.29 1010.17 1010.10 1010.09 1010.15 1010.27 1010.46 1010.71 1011.01 1011.35 1011.72 1012.12 1012.53 1012.93 1013.32 1013.69 1014.03 1014.32 1014.58 1014.79 1014.95 1015.08 1015.19 1015.27 1015.35 1015.44 1015.54 1015.66 1015.81 1015.99 1016.19 1016.41 1016.65 1016.89 1017.12 1017.34 1017.54 1017.71 1017.85 1017.95 1018.01 1018.03
1010.06 1009.90 1009.78 1009.69 1009.64 1009.65 1009.72 1009.86 1010.07 1010.34 1010.68 1011.07 1011.50 1011.96 1012.42 1012.88 1013.30 1013.69 1014.02 1014.30 1014.52 1014.69 1014.82 1014.91 1014.99 1015.07 1015.16 1015.27 1015.40 1015.56 1015.75 1015.95 1016.16 1016.39 1016.60 1016.80 1016.99 1017.16 1017.30 1017.42 1017.51 1017.58 1017.61
1009.68 1009.52 1009.38 1009.25 1009.16 1009.11 1009.11 1009.18 1009.32 1009.55 1009.86 1010.24 1010.69 1011.17 1011.68 1012.19 1012.68 1013.12 1013.50 1013.82 1014.07 1014.26 1014.39 1014.49 1014.58 1014.66 1014.76 1014.88 1015.03 1015.21 1015.41 1015.62 1015.84 1016.05 1016.26 1016.44 1016.61 1016.75 1016.88 1016.98 1017.07 1017.15 1017.20
1009.37 1009.19 1009.01 1008.84 1008.68 1008.55 1008.47 1008.45 1008.52 1008.68 1008.93 1009.28 1009.71 1010.21 1010.74 1011.29 1011.82 1012.31 1012.74 1013.10 1013.38 1013.60 1013.76 1013.88 1013.98 1014.09 1014.20 1014.34 1014.51 1014.71 1014.92 1015.15 1015.38 1015.60 1015.81 1015.99 1016.15 1016.29 1016.41 1016.52 1016.61 1016.70 1016.78
1009.15 1008.93 1008.69 1008.46 1008.23 1008.02 1007.85 1007.75 1007.72 1007.80 1007.99 1008.29 1008.68 1009.16 1009.69 1010.24 1010.80 1011.31 1011.78 1012.17 1012.49 1012.74 1012.93 1013.08 1013.21 1013.33 1013.47 1013.63 1013.82 1014.03 1014.27 1014.52 1014.76 1015.00 1015.22 1015.41 1015.58 1015.73 1015.86 1015.98 1016.09 1016.20 1016.30
1009.02 1008.74 1008.45 1008.15 1007.85 1007.56 1007.32 1007.14 1007.04 1007.05 1007.16 1007.40 1007.74 1008.17 1008.67 1009.21 1009.75 1010.28 1010.75 1011.16 1011.51 1011.78 1011.99 1012.16 1012.31 1012.45 1012.60 1012.78 1012.98 1013.20 1013.45 1013.71 1013.97 1014.23 1014.47 1014.68 1014.87 1015.05 1015.20 1015.35 1015.49 1015.62 1015.74
1008.98 1008.63 1008.28 1007.92 1007.57 1007.24 1006.95 1006.72 1006.57 1006.52 1006.58 1006.75 1007.03 1007.41 1007.86 1008.35 1008.86 1009.36 1009.82 1010.22 1010.56 1010.84 1011.06 1011.24 1011.40 1011.55 1011.70 1011.87 1012.07 1012.29 1012.54 1012.79 1013.05 1013.31 1013.56 1013.80 1014.01 1014.21 1014.40 1014.58 1014.75 1014.91 1015.06
1009.00 1008.59 1008.19 1007.80 1007.42 1007.08 1006.78 1006.54 1006.38 1006.30 1006.33 1006.46 1006.69 1007.00 1007.39 1007.82 1008.27 1008.71 1009.12 1009.49 1009.81 1010.07 1010.28 1010.45 1010.60 1010.73 1010.87 1011.02 1011.19 1011.38 1011.60 1011.82 1012.06 1012.30 1012.54 1012.78 1013.01 1013.23 1013.45 1013.66 1013.86 1014.05 1014.22
1009.07 1008.61 1008.18 1007.79 1007.43 1007.11 1006.84 1006.64 1006.50 1006.44 1006.46 1006.57 1006.76 1007.02 1007.33 1007.68 1008.05 1008.42 1008.76 1009.08 1009.35 1009.57 1009.75 1009.89 1010.01 1010.12 1010.22 1010.32 1010.44 1010.57 1010.72 1010.89 1011.07 1011.26 1011.47 1011.68 1011.90 1012.12 1012.36 1012.59 1012.81 1013.03 1013.23
1009.20 1008.71 1008.28 1007.91 1007.59 1007.33 1007.14 1007.00 1006.92 1006.91 1006.95 1007.05 1007.21 1007.42 1007.66 1007.93 1008.21 1008.49 1008.75 1008.99 1009.20 1009.37 1009.50 1009.61 1009.69 1009.75 1009.80 1009.84 1009.89 1009.94 1010.00 1010.08 1010.16 1010.27 1010.40 1010.55 1010.73 1010.93 1011.15 1011.39 1011.63 1011.87 1012.10
1009.41 1008.92 1008.50 1008.17 1007.92 1007.74 1007.64 1007.58 1007.58 1007.62 1007.70 1007.81 1007.95 1008.11 1008.28 1008.47 1008.66 1008.84 1009.02 1009.17 1009.31 1009.43 1009.52 1009.58 1009.62 1009.63 1009.63 1009.60 1009.57 1009.52 1009.47 1009.43 1009.40 1009.39 1009.42 1009.47 1009.57 1009.72 1009.90 1010.12 1010.36 1010.62 1010.88
1009.74 1009.25 1008.86 1008.58 1008.40 1008.31 1008.28 1008.32 1008.39 1008.49 1008.60 1008.72 1008.83 1008.94 1009.05 1009.16 1009.26 1009.35 1009.44 1009.52 1009.60 1009.66 1009.71 1009.74 1009.74 1009.72 1009.67 1009.58 1009.46 1009.32 1009.16 1008.99 1008.83 1008.68 1008.57 1008.51 1008.50 1008.56 1008.68 1008.86 1009.08 1009.35 1009.63
1010.21 1009.75 1009.39 1009.16 1009.03 1009.00 1009.04 1009.13 1009.25 1009.39 1009.51 1009.62 1009.71 1009.77 1009.81 1009.84 1009.86 1009.87 1009.88 1009.90 1009.93 1009.96 1009.98 1009.99 1009.98 1009.93 1009.85 1009.72 1009.54 1009.32 1009.05 1008.76 1008.47 1008.18 1007.93 1007.73 1007.60 1007.54 1007.58 1007.70 1007.89 1008.15 1008.45
1010.86 1010.42 1010.09 1009.89 1009.79 1009.79 1009.86 1009.97 1010.11 1010.24 1010.36 1010.44 1010.48 1010.49 1010.47 1010.42 1010.36 1010.30 1010.25 1010.22 1010.21 1010.21 1010.23 1010.23 1010.22 1010.18 1010.09 1009.94 1009.73 1009.45 1009.11 1008.72 1008.31 1007.90 1007.51 1007.17 1006.91 1006.74 1006.68 1006.72 1006.87 1007.10 1007.41
1011.68 1011.26 1010.95 1010.76 1010.66 1010.66 1010.72 1010.81 1010.92 1011.02 1011.10 1011.13 1011.12 1011.06 1010.97 1010.85 1010.73 1010.61 1010.51 1010.43 1010.39 1010.38 1010.40 1010.41 1010.42 1010.40 1010.32 1010.18 1009.96 1009.65 1009.27 1008.82 1008.32 1007.81 1007.31 1006.85 1006.47 1006.19 1006.03 1005.99 1006.08 1006.29 1006.59
1012.63 1012.24 1011.94 1011.73 1011.62 1011.58 1011.60 1011.64 1011.70 1011.74 1011.76 1011.72 1011.65 1011.52 1011.36 1011.18 1010.99 1010.82 1010.67 1010.56 1010.49 1010.47 1010.48 1010.51 1010.54 1010.54 1010.49 1010.37 1010.17 1009.87 1009.48 1009.00 1008.46 1007.88 1007.30 1006.76 1006.28 1005.91 1005.65 1005.54 1005.57 1005.73 1006.02
Thickness
5699 5698 5697 5696 5696 5695 5694 5694 5694 5694 5694 5694 5695 5695 5695 5695 5695 5694 5695 5696 5695 5695 5695 5695 5694 5694 5695 5696 5697 5696 5695 5694 5690 5693 5695 5695 5692 5692 5692 5693 5694 5693 5693
5695 5693 5691 5690 5690 5689 5689 5688 5688 5688 5689 5690 5690 5690 5691 5691 5691 5691 5691 5691 5691 5691 5692 5691 5691 5691 5690 5691 5691 5692 5691 5690 5688 5686 5689 5690 5688 5688 5688 5688 5691 5692 5691
5691 5689 5686 5685 5684 5684 5684 5683 5683 5683 5684 5684 5685 5685 5686 5687 5687 5687 5687 5687 5687 5687 5687 5686 5686 5686 5685 5686 5686 5687 5688 5688 5687 5684 5684 5685 5685 5685 5684 5685 5687 5687 5689
5686 5683 5681 5679 5679 5678 5678 5677 5677 5678 5678 5678 5679 5679 5680 5681 5682 5682 5683 5683 5683 5683 5683 5682 5682 5682 5681 5681 5681 5681 5682 5682 5681 5681 5681 5681 5680 5681 5680 5681 5682 5683 5684
5680 5678 5676 5674 5674 5673 5672 5672 5672 5672 5673 5673 5673 5674 5675 5676 5677 5677 5677 5678 5677 5677 5677 5677 5677 5676 5676 5675 5677 5677 5676 5676 5676 5676 5675 5676 5676 5674 5676 5678 5678 5679 5680
5674 5672 5671 5669 5668 5667 5666 5666 5666 5666 5667 5668 5668 5669 5669 5671 5669 5668 5669 5671 5671 5671 5671 5672 5672 5671 5669 5668 5668 5668 5668 5669 5670 5669 5671 5670 5669 5671 5671 5672 5673 5673 5673
5669 5668 5666 5665 5663 5662 5662 5661 5661 5661 5661 5662 5662 5663 5664 5663 5661 5660 5660 5663 5665 5665 5666 5666 5668 5669 5667 5666 5663 5661 5661 5661 5661 5663 5665 5665 5665 5666 5665 5666 5665 5666 5667
5664 5663 5661 5659 5658 5657 5657 5656 5656 5656 5656 5656 5657 5658 5658 5658 5656 5654 5654 5657 5659 5660 5661 5661 5661 5662 5662 5661 5661 5660 5660 5660 5659 5659 5659 5660 5661 5660 5660 5660 5660 5660 5662
5658 5657 5656 5655 5653 5652 5652 5651 5651 5651 5651 5651 5653 5653 5653 5653 5650 5649 5647 5652 5655 5656 5657 5657 5657 5656 5654 5653 5653 5654 5654 5655 5654 5653 5653 5652 5651 5651 5652 5654 5656 5657 5658
5653 5652 5650 5649 5648 5647 5647 5646 5647 5647 5646 5647 5648 5648 5649 5649 5646 5645 5643 5649 5650 5651 5652 5653 5651 5650 5649 5647 5648 5649 5649 5650 5651 5651 5648 5647 5647 5647 5646 5647 5651 5652 5653
5647 5646 5645 5643 5643 5642 5642 5641 5641 5642 5642 5642 5643 5644 5644 5644 5643 5641 5640 5644 5647 5647 5648 5649 5649 5645 5643 5641 5641 5643 5644 5644 5645 5645 5645 5646 5646 5646 5645 5644 5645 5646 5647
5640 5640 5639 5638 5638 5639 5636 5636 5636 5637 5637 5637 5637 5638 5640 5640 5639 5638 5636 5637 5639 5641 5643 5645 5644 5640 5638 5636 5636 5636 5636 5635 5639 5640 5641 5642 5643 5643 5643 5641 5640 5639 5639
5633 5633 5633 5633 5633 5633 5632 5631 5632 5632 5633 5634 5634 5635 5636 5637 5636 5633 5632 5632 5632 5635 5638 5636 5635 5633 5632 5632 5630 5630 5630 5633 5635 5637 5638 5639 5640 5639 5638 5635 5635 5634 5633
5627 5627 5628 5628 5628 5628 5627 5629 5628 5628 5628 5629 5629 5630 5631 5632 5633 5632 5631 5629 5627 5628 5630 5629 5627 5627 5627 5628 5628 5627 5628 5632 5633 5633 5635 5635 5635 5634 5632 5632 5631 5630 5629
5621 5622 5623 5624 5624 5622 5622 5621 5622 5621 5622 5621 5623 5624 5624 5625 5625 5623 5625 5626 5627 5627 5626 5626 5627 5629 5629 5629 5629 5630 5629 5628 5627 5629 5629 5629 5629 5628 5627 5627 5625 5625 5624
5616 5617 5619 5619 5619 5618 5617 5616 5613 5612 5611 5611 5611 5613 5616 5615 5614 5614 5614 5615 5615 5615 5616 5621 5624 5626 5627 5627 5627 5626 5626 5625 5625 5625 5625 5624 5623 5623 5622 5622 5620 5619 5618
5611 5612 5613 5614 5614 5614 5613 5612 5610 5607 5604 5603 5603 5604 5605 5606 5606 5607 5607 5607 5608 5607 5611 5617 5620 5621 5622 5622 5622 5623 5622 5621 5620 5620 5619 5619 5618 5617 5616 5615 5614 5613 5613
5607 5607 5606 5607 5609 5609 5608 5608 5607 5606 5605 5604 5600 5598 5598 5599 5599 5601 5602 5602 5606 5605 5610 5612 5614 5616 5616 5616 5616 5617 5617 5616 5615 5614 5613 5613 5612 5611 5610 5609 5608 5606 5606
5602 5603 5602 5602 5603 5603 5603 5603 5603 5602 5601 5601 5601 5597 5593 5593 5593 5594 5596 5601 5606 5607 5607 5608 5609 5610 5611 5611 5611 5611 5611 5610 5609 5608 5607 5606 5606 5605 5604 5603 5602 5599 5597
5596 5593 5593 5596 5597 5598 5598 5597 5597 5595 5594 5595 5594 5594 5592 5591 5593 5593 5594 5598 5600 5601 5602 5602 5604 5604 5604 5605 5605 5605 5605 5603 5602 5602 5601 5601 5600 5599 5598 5596 5595 5594 5593
5593 5591 5586 5589 5592 5592 5592 5592 5591 5589 5589 5588 5588 5588 5585 5590 5591 5592 5592 5592 5593 5594 5594 5595 5596 5597 5598 5598 5598 5599 5597 5597 5596 5595 5594 5593 5593 5592 5591 5590 5588 5587 5587
5588 5588 5586 5585 5585 5586 5585 5585 5585 5584 5584 5584 5584 5584 5580 5583 5586 5587 5587 5587 5587 5587 5588 5589 5590 5590 5590 5591 5591 5590 5590 5589 5589 5587 5586 5586 5585 5584 5584 5583 5582 5581 5579
5581 5581 5581 5581 5580 5578 5579 5579 5579 5579 5579 5579 5580 5580 5579 5579 5579 5580 5580 5580 5580 5581 5581 5581 5582 5583 5583 5583 5582 5582 5581 5581 5580 5579 5578 5578 5578 5577 5577 5576 5575 5574 5572
5576 5576 5575 5575 5575 5575 5575 5575 5575 5574 5574 5574 5574 5574 5574 5573 5573 5573 5573 5574 5574 5574 5574 5574 5574 5574 5573 5573 5574 5573 5571 5569 5569 5570 5569 5569 5570 5570 5570 5568 5567 5566 5564
5572 5571 5570 5570 5570 5570 5570 5569 5569 5568 5569 5569 5569 5569 5568 5568 5568 5567 5567 5567 5568 5567 5567 5567 5566 5566 5565 5564 5564 5563 5560 5559 5558 5559 5560 5560 5560 5560 5561 5560 5559 5557 5555
5566 5565 5564 5564 5564 5564 5564 5563 5562 5562 5562 5563 5563 5563 5563 5562 5562 5562 5561 5560 5560 5561 5560 5560 5559 5558 5557 5556 5554 5552 5551 5549 5549 5548 5549 5550 5551 5551 5551 5551 5550 5549 5547